Bay City, TX

9:17 PM CST on February 19, 2017 (GMT -0600)
Bay City

Weather History for KBYY - January, 2014

Change the Weather History Date:

Monday, January 6, 2014

  Actual Average (KLBX) Record (KLBX)
Temperature  
Mean Temperature 34 °F -  
Max Temperature 38 °F 61 °F 77 °F (2008)
Min Temperature 29 °F 45 °F 26 °F (2014)
Degree Days  
Heating Degree Days 32    
Moisture  
Dew Point 17 °F    
Average Humidity 52    
Maximum Humidity 70    
Minimum Humidity 35    
Precipitation  
Precipitation 0.00 in - - ()
Sea Level Pressure  
Sea Level Pressure 30.59 in    
Wind  
Wind Speed 13 mph (North)    
Max Wind Speed 22 mph    
Max Gust Speed 31 mph    
Visibility 10 miles    
Events      
Averages and records for this station are not official NWS values.
T = Trace of Precipitation, MM = Missing Value Source: NWS Daily Summary

Daily Weather History Graph

Daily Weather History Graph

Search for Another Location

Airport or City:

Trip Planner

Search our weather history database for the weather conditions in past years. The results will help you decide how hot, cold, wet, or windy it might be!

Date:

Astronomy

Jan. 06, 2014 Rise Set
Actual Time 7:18 AM CST 5:40 PM CST
Civil Twilight 6:52 AM CST 6:06 PM CST
Nautical Twilight 6:22 AM CST 6:36 PM CST
Astronomical Twilight 5:54 AM CST 7:04 PM CST
Moon 11:04 AM CST (1/6) 11:42 PM CST (1/6)
Length of Visible Light 11h 14m
Length of Day
10h 22m
Waxing Crescent, 35% of the Moon is Illuminated
Jan 6
Waxing Crescent
Jan 7
First Quarter
Jan 15
Full
Jan 23
Last Quarter
Jan 30
New

Hourly Weather History & Observations

Time (CST) Temp. Windchill Dew Point Humidity Pressure Visibility Wind Dir Wind Speed Gust Speed Precip Events Conditions
12:15 AM 38.3 °F 29.0 °F 24.3 °F 57% 30.37 in 10.0 mi North 17.3 mph 23.0 mph N/A   Clear
12:35 AM 38.1 °F 28.4 °F 24.1 °F 57% 30.37 in 10.0 mi North 18.4 mph 26.5 mph N/A   Clear
12:55 AM 37.9 °F 27.3 °F 23.5 °F 56% 30.37 in 10.0 mi North 21.9 mph 31.1 mph N/A   Clear
1:15 AM 37.4 °F 28.5 °F 23.5 °F 57% 30.37 in 10.0 mi North 15.0 mph 29.9 mph N/A   Clear
1:35 AM 36.9 °F 27.8 °F 23.7 °F 59% 30.39 in 10.0 mi North 15.0 mph 26.5 mph N/A   Clear
1:55 AM 36.7 °F 26.9 °F 23.4 °F 59% 30.39 in 10.0 mi North 17.3 mph 27.6 mph N/A   Clear
2:15 AM 36.5 °F 27.8 °F 23.4 °F 59% 30.40 in 10.0 mi North 13.8 mph 20.7 mph N/A   Clear
2:35 AM 36.0 °F 26.3 °F 23.4 °F 60% 30.41 in 10.0 mi North 16.1 mph 21.9 mph N/A   Clear
2:55 AM 35.8 °F 26.5 °F 23.0 °F 60% 30.42 in 10.0 mi North 15.0 mph 23.0 mph N/A   Clear
3:15 AM 35.4 °F 26.0 °F 22.5 °F 59% 30.43 in 10.0 mi North 15.0 mph 24.2 mph N/A   Clear
3:35 AM 34.5 °F 24.8 °F 22.3 °F 61% 30.44 in 10.0 mi North 15.0 mph 23.0 mph N/A   Clear
3:55 AM 33.8 °F 24.8 °F 22.5 °F 63% 30.45 in 10.0 mi North 12.7 mph 18.4 mph N/A   Clear
4:15 AM 33.6 °F 24.6 °F 22.6 °F 64% 30.46 in 10.0 mi North 12.7 mph 18.4 mph N/A   Clear
4:35 AM 33.3 °F 23.2 °F 22.6 °F 65% 30.46 in 10.0 mi North 15.0 mph 19.6 mph N/A   Clear
4:55 AM 32.9 °F 23.2 °F 22.5 °F 65% 30.46 in 10.0 mi North 13.8 mph - N/A   Clear
5:15 AM 32.4 °F 22.1 °F 22.3 °F 66% 30.47 in 10.0 mi North 15.0 mph 18.4 mph N/A   Clear
5:35 AM 32.0 °F 22.5 °F 22.1 °F 67% 30.49 in 10.0 mi North 12.7 mph 18.4 mph N/A   Clear
5:55 AM 32.0 °F 23.0 °F 22.1 °F 67% 30.51 in 10.0 mi NNW 11.5 mph 18.4 mph N/A   Clear
6:15 AM 31.6 °F 22.6 °F 22.1 °F 68% 30.52 in 10.0 mi North 11.5 mph 16.1 mph N/A   Clear
6:35 AM 31.1 °F 20.9 °F 21.7 °F 68% 30.54 in 10.0 mi North 13.8 mph 18.4 mph N/A   Clear
6:55 AM 30.6 °F 19.8 °F 21.7 °F 70% 30.55 in 10.0 mi North 15.0 mph - N/A   Clear
7:15 AM 30.2 °F 20.8 °F 21.2 °F 69% 30.57 in 10.0 mi NNW 11.5 mph - N/A   Clear
7:35 AM 29.8 °F 19.8 °F 20.8 °F 69% 30.59 in 10.0 mi North 12.7 mph 18.4 mph N/A   Clear
7:55 AM 29.8 °F 21.5 °F 20.3 °F 68% 30.60 in 10.0 mi North 9.2 mph - N/A   Clear
8:15 AM 30.2 °F 21.3 °F 19.8 °F 65% 30.61 in 10.0 mi North 10.4 mph - N/A   Clear
8:35 AM 30.6 °F 21.2 °F 19.4 °F 63% 30.62 in 10.0 mi North 11.5 mph - N/A   Clear
8:55 AM 31.1 °F 20.9 °F 19.8 °F 63% 30.63 in 10.0 mi North 13.8 mph 19.6 mph N/A   Clear
9:15 AM 31.3 °F 20.3 °F 19.0 °F 61% 30.65 in 10.0 mi North 16.1 mph 23.0 mph N/A   Clear
9:35 AM 32.4 °F 22.1 °F 18.9 °F 58% 30.66 in 10.0 mi NNW 15.0 mph 19.6 mph N/A   Clear
9:55 AM 32.7 °F 23.0 °F 18.5 °F 56% 30.67 in 10.0 mi NNW 13.8 mph - N/A   Clear
10:15 AM 33.1 °F 22.6 °F 18.0 °F 54% 30.68 in 10.0 mi North 16.1 mph 19.6 mph N/A   Clear
10:35 AM 33.4 °F 24.3 °F 17.6 °F 52% 30.68 in 10.0 mi North 12.7 mph 20.7 mph N/A   Clear
10:55 AM 33.6 °F 24.6 °F 18.0 °F 53% 30.69 in 10.0 mi North 12.7 mph 17.3 mph N/A   Clear
11:15 AM 34.2 °F 25.2 °F 17.4 °F 50% 30.69 in 10.0 mi NNW 12.7 mph - N/A   Clear
11:35 AM 34.0 °F 24.2 °F 17.1 °F 50% 30.68 in 10.0 mi NW 15.0 mph 20.7 mph N/A   Clear
11:55 AM 34.0 °F 25.5 °F 16.5 °F 49% 30.67 in 10.0 mi NNW 11.5 mph 18.4 mph N/A   Clear
12:15 PM 34.2 °F 24.8 °F 16.3 °F 48% 30.65 in 10.0 mi North 13.8 mph - N/A   Clear
12:35 PM 34.9 °F 25.7 °F 16.3 °F 47% 30.65 in 10.0 mi North 13.8 mph 17.3 mph N/A   Clear
12:55 PM 35.2 °F 25.4 °F 15.3 °F 44% 30.64 in 10.0 mi North 16.1 mph - N/A   Clear
1:15 PM 35.8 °F 28.3 °F 14.9 °F 43% 30.64 in 10.0 mi North 10.4 mph 13.8 mph N/A   Clear
1:35 PM 36.3 °F 28.9 °F 14.0 °F 40% 30.63 in 10.0 mi North 10.4 mph 19.6 mph N/A   Clear
1:55 PM 36.7 °F 28.4 °F 12.9 °F 38% 30.62 in 10.0 mi North 12.7 mph 19.6 mph N/A   Clear
2:15 PM 37.0 °F 27.7 °F 12.7 °F 37% 30.61 in 10.0 mi North 16.1 mph 19.6 mph N/A   Clear
2:35 PM 36.9 °F 29.6 °F 12.7 °F 37% 30.62 in 10.0 mi North 10.4 mph - N/A   Clear
2:55 PM 37.0 °F 30.4 °F 12.4 °F 36% 30.63 in 10.0 mi North 9.2 mph - N/A   Clear
3:15 PM 37.2 °F 31.2 °F 12.2 °F 36% 30.64 in 10.0 mi NNW 8.1 mph - N/A   Clear
3:35 PM 37.0 °F 29.3 °F 11.3 °F 35% 30.64 in 10.0 mi NNW 11.5 mph - N/A   Clear
3:55 PM 36.7 °F 29.4 °F 11.5 °F 35% 30.64 in 10.0 mi NNW 10.4 mph - N/A   Clear
4:15 PM 36.3 °F 28.9 °F 11.5 °F 36% 30.64 in 10.0 mi NNW 10.4 mph 17.3 mph N/A   Clear
4:35 PM 36.0 °F 29.0 °F 11.1 °F 36% 30.65 in 10.0 mi NNW 9.2 mph - N/A   Clear
4:55 PM 35.8 °F 28.3 °F 11.3 °F 36% 30.64 in 10.0 mi North 10.4 mph - N/A   Clear
5:15 PM 35.2 °F 27.6 °F 11.7 °F 38% 30.64 in 10.0 mi North 10.4 mph - N/A   Clear
5:35 PM 34.5 °F 26.2 °F 12.9 °F 41% 30.64 in 10.0 mi NNW 11.5 mph - N/A   Clear
5:55 PM 33.8 °F 27.7 °F 12.7 °F 42% 30.65 in 10.0 mi NNW 6.9 mph - N/A   Clear
6:15 PM 33.3 °F 27.1 °F 13.3 °F 44% 30.66 in 10.0 mi NNW 6.9 mph - N/A   Clear
6:35 PM 33.1 °F 26.9 °F 13.6 °F 45% 30.66 in 10.0 mi NNW 6.9 mph - N/A   Clear
6:55 PM 32.9 °F 26.7 °F 13.8 °F 45% 30.65 in 10.0 mi NNW 6.9 mph - N/A   Clear
7:15 PM 32.9 °F 25.9 °F 13.6 °F 45% 30.65 in 10.0 mi NNW 8.1 mph - N/A   Clear
7:35 PM 32.9 °F 28.5 °F 13.6 °F 45% 30.66 in 10.0 mi NNW 4.6 mph - N/A   Clear
7:55 PM 32.7 °F 28.3 °F 13.6 °F 45% 30.68 in 10.0 mi NNW 4.6 mph - N/A   Clear
8:15 PM 32.7 °F 26.4 °F 14.4 °F 47% 30.67 in 10.0 mi NNW 6.9 mph - N/A   Clear
8:35 PM 32.2 °F 25.0 °F 14.9 °F 49% 30.68 in 10.0 mi NNW 8.1 mph - N/A   Clear
8:55 PM 32.0 °F 25.6 °F 15.1 °F 50% 30.68 in 10.0 mi NNW 6.9 mph - N/A   Clear
9:15 PM 31.8 °F 26.2 °F 15.1 °F 50% 30.68 in 10.0 mi North 5.8 mph - N/A   Clear
9:35 PM 31.3 °F 26.6 °F 14.9 °F 51% 30.68 in 10.0 mi North 4.6 mph - N/A   Clear
9:55 PM 31.1 °F 24.5 °F 14.7 °F 51% 30.68 in 10.0 mi North 6.9 mph - N/A   Clear
10:15 PM 30.9 °F 26.2 °F 14.5 °F 51% 30.69 in 10.0 mi NNW 4.6 mph - N/A   Clear
10:35 PM 30.6 °F 23.8 °F 15.3 °F 53% 30.68 in 10.0 mi North 6.9 mph - N/A   Clear
10:55 PM 30.9 °F 24.3 °F 15.1 °F 52% 30.68 in 10.0 mi North 6.9 mph - N/A   Clear
11:15 PM 31.1 °F 25.4 °F 14.9 °F 51% 30.66 in 10.0 mi North 5.8 mph - N/A   Clear
11:35 PM 31.1 °F 26.4 °F 14.4 °F 50% 30.66 in 10.0 mi North 4.6 mph - N/A   Clear
11:55 PM 31.1 °F 24.5 °F 14.5 °F 50% 30.66 in 10.0 mi North 6.9 mph - N/A   Clear